When you browse on this site, cookies collect data to enhance your experience and personalize the content and advertising you see.
Visit our Privacy Policy to learn more. By continuing to use the site, you agree to this use of cookies and data.
  • In France
  • List of Countries
  • For 7 days
  • Water Temperature
  • Weather Map
  • Weather Widgets
  • user-avatar
    Login

    Hourly Weather Mazari Sharif

    Today, 23 August, Friday

    Time Temperature Precipitation Wind Pressure Humidity
    00:00 +20°C° 0 mm 2 mps 652 mmHg 24%
    01:00 +20°C° 0 mm 2 mps 651 mmHg 24%
    02:00 +19°C° 0 mm 2 mps 651 mmHg 26%
    03:00 +19°C° 0 mm 2 mps 652 mmHg 27%
    04:00 +19°C° 0 mm 1 mps 652 mmHg 28%
    05:00 +21°C° 0 mm 2 mps 653 mmHg 24%
    06:00 +24°C° 0 mm 2 mps 654 mmHg 21%
    07:00 +27°C° 0 mm 2 mps 655 mmHg 17%
    08:00 +28°C° 0 mm 3 mps 655 mmHg 16%
    09:00 +29°C° 0 mm 3 mps 656 mmHg 15%
    10:00 +32°C° 0 mm 4 mps 656 mmHg 14%
    11:00 +33°C° 0 mm 4 mps 656 mmHg 13%
    12:00 +33°C° 0 mm 4 mps 655 mmHg 12%
    13:00 +34°C° 0 mm 5 mps 655 mmHg 12%
    14:00 +34°C° 0 mm 5 mps 655 mmHg 12%
    15:00 +34°C° 0 mm 5 mps 655 mmHg 12%
    16:00 +34°C° 0 mm 6 mps 655 mmHg 12%
    17:00 +30°C° 0 mm 5 mps 655 mmHg 15%
    18:00 +28°C° 0 mm 5 mps 654 mmHg 17%
    19:00 +26°C° 0 mm 4 mps 654 mmHg 19%
    20:00 +23°C° 0 mm 4 mps 654 mmHg 22%
    21:00 +22°C° 0 mm 3 mps 653 mmHg 25%
    22:00 +20°C° 0 mm 2 mps 653 mmHg 28%
    23:00 +20°C° 0 mm 2 mps 653 mmHg 29%

    Tomorrow, 24 August, Saturday

    Time Temperature Precipitation Wind Pressure Humidity
    00:00 +19°C° 0 mm 2 mps 653 mmHg 30%
    01:00 +19°C° 0 mm 2 mps 652 mmHg 31%
    02:00 +18°C° 0 mm 2 mps 652 mmHg 33%
    03:00 +18°C° 0 mm 2 mps 652 mmHg 34%
    04:00 +17°C° 0 mm 2 mps 652 mmHg 35%
    05:00 +19°C° 0 mm 2 mps 653 mmHg 31%
    06:00 +21°C° 0 mm 2 mps 654 mmHg 27%
    07:00 +24°C° 0 mm 2 mps 655 mmHg 23%
    08:00 +26°C° 0 mm 2 mps 655 mmHg 21%
    09:00 +27°C° 0 mm 3 mps 656 mmHg 19%
    10:00 +28°C° 0 mm 3 mps 656 mmHg 17%
    11:00 +29°C° 0 mm 4 mps 656 mmHg 16%
    12:00 +30°C° 0 mm 4 mps 655 mmHg 15%
    13:00 +30°C° 0 mm 5 mps 655 mmHg 14%
    14:00 +30°C° 0 mm 5 mps 655 mmHg 14%
    15:00 +30°C° 0 mm 5 mps 655 mmHg 14%
    16:00 +30°C° 0 mm 5 mps 654 mmHg 13%
    17:00 +27°C° 0 mm 4 mps 654 mmHg 15%
    18:00 +24°C° 0 mm 2 mps 653 mmHg 16%
    19:00 +21°C° 0 mm 1 mps 653 mmHg 18%
    20:00 +20°C° 0 mm 2 mps 653 mmHg 18%
    21:00 +20°C° 0 mm 2 mps 653 mmHg 18%
    22:00 +19°C° 0 mm 2 mps 653 mmHg 18%
    23:00 +19°C° 0 mm 2 mps 653 mmHg 19%

    Day after tomorrow, 25 August, Sunday

    Time Temperature Precipitation Wind Pressure Humidity
    00:00 +18°C° 0 mm 2 mps 652 mmHg 20%
    01:00 +18°C° 0 mm 2 mps 652 mmHg 21%
    02:00 +18°C° 0 mm 1 mps 652 mmHg 22%
    03:00 +18°C° 0 mm 1 mps 652 mmHg 23%
    04:00 +16°C° 0 mm 1 mps 652 mmHg 24%
    05:00 +20°C° 0 mm 1 mps 653 mmHg 21%
    06:00 +22°C° 0 mm 1 mps 654 mmHg 19%
    07:00 +25°C° 0 mm 1 mps 655 mmHg 16%
    08:00 +26°C° 0 mm 1 mps 655 mmHg 15%
    09:00 +28°C° 0 mm 1 mps 655 mmHg 14%
    10:00 +29°C° 0 mm 2 mps 655 mmHg 13%
    11:00 +30°C° 0 mm 2 mps 655 mmHg 12%
    12:00 +31°C° 0 mm 3 mps 654 mmHg 11%
    13:00 +33°C° 0 mm 4 mps 654 mmHg 11%
    14:00 +33°C° 0 mm 4 mps 654 mmHg 11%
    15:00 +33°C° 0 mm 4 mps 654 mmHg 11%
    16:00 +32°C° 0 mm 4 mps 654 mmHg 11%
    17:00 +28°C° 0 mm 3 mps 653 mmHg 14%
    18:00 +25°C° 0 mm 2 mps 652 mmHg 17%
    19:00 +22°C° 0 mm 1 mps 652 mmHg 20%
    20:00 +22°C° 0 mm 1 mps 652 mmHg 21%
    21:00 +22°C° 0 mm 1 mps 652 mmHg 21%
    22:00 +20°C° 0 mm 2 mps 652 mmHg 21%
    23:00 +21°C° 0 mm 1 mps 652 mmHg 22%

    26 August, Monday

    Time Temperature Precipitation Wind Pressure Humidity
    00:00 +21°C° 0 mm 1 mps 652 mmHg 22%
    01:00 +20°C° 0 mm 1 mps 651 mmHg 23%
    02:00 +20°C° 0 mm 1 mps 651 mmHg 24%
    03:00 +20°C° 0 mm 1 mps 652 mmHg 25%
    04:00 +19°C° 0 mm 1 mps 652 mmHg 26%
    05:00 +22°C° 0 mm 1 mps 653 mmHg 22%
    06:00 +24°C° 0 mm 1 mps 654 mmHg 19%
    07:00 +27°C° 0 mm 1 mps 655 mmHg 16%
    08:00 +28°C° 0 mm 2 mps 655 mmHg 14%
    09:00 +30°C° 0 mm 2 mps 656 mmHg 13%
    10:00 +31°C° 0 mm 3 mps 656 mmHg 12%
    11:00 +33°C° 0 mm 4 mps 656 mmHg 11%
    12:00 +33°C° 0 mm 4 mps 655 mmHg 11%
    13:00 +34°C° 0 mm 5 mps 655 mmHg 10%
    14:00 +34°C° 0 mm 5 mps 655 mmHg 11%
    15:00 +34°C° 0 mm 5 mps 655 mmHg 11%
    16:00 +33°C° 0 mm 4 mps 655 mmHg 11%
    17:00 +29°C° 0 mm 4 mps 654 mmHg 14%
    18:00 +26°C° 0 mm 3 mps 654 mmHg 16%
    19:00 +23°C° 0 mm 2 mps 653 mmHg 19%
    20:00 +23°C° 0 mm 2 mps 653 mmHg 19%
    21:00 +21°C° 0 mm 2 mps 653 mmHg 19%
    22:00 +20°C° 0 mm 2 mps 653 mmHg 20%
    23:00 +20°C° 0 mm 2 mps 653 mmHg 20%

    27 August, Tuesday

    Time Temperature Precipitation Wind Pressure Humidity
    00:00 +20°C° 0 mm 2 mps 653 mmHg 20%
    01:00 +19°C° 0 mm 2 mps 653 mmHg 20%
    02:00 +19°C° 0 mm 2 mps 653 mmHg 21%
    03:00 +19°C° 0 mm 2 mps 653 mmHg 21%
    04:00 +18°C° 0 mm 2 mps 653 mmHg 22%
    05:00 +21°C° 0 mm 2 mps 654 mmHg 19%
    06:00 +24°C° 0 mm 2 mps 655 mmHg 16%
    07:00 +26°C° 0 mm 2 mps 656 mmHg 13%
    08:00 +28°C° 0 mm 2 mps 657 mmHg 12%
    09:00 +29°C° 0 mm 3 mps 657 mmHg 10%
    10:00 +31°C° 0 mm 3 mps 657 mmHg 9%
    11:00 +33°C° 0 mm 4 mps 657 mmHg 9%
    12:00 +33°C° 0 mm 5 mps 657 mmHg 8%
    13:00 +34°C° 0 mm 5 mps 656 mmHg 8%
    14:00 +34°C° 0 mm 5 mps 656 mmHg 8%
    15:00 +33°C° 0 mm 5 mps 656 mmHg 9%
    16:00 +33°C° 0 mm 5 mps 656 mmHg 9%
    17:00 +29°C° 0 mm 4 mps 655 mmHg 11%
    18:00 +26°C° 0 mm 3 mps 655 mmHg 13%
    19:00 +23°C° 0 mm 2 mps 655 mmHg 15%
    20:00 +23°C° 0 mm 2 mps 654 mmHg 15%
    21:00 +23°C° 0 mm 2 mps 654 mmHg 16%
    22:00 +21°C° 0 mm 2 mps 654 mmHg 16%
    23:00 +21°C° 0 mm 2 mps 654 mmHg 17%

    28 August, Wednesday

    Time Temperature Precipitation Wind Pressure Humidity
    00:00 +20°C° 0 mm 2 mps 654 mmHg 18%
    01:00 +20°C° 0 mm 2 mps 653 mmHg 18%
    02:00 +19°C° 0 mm 2 mps 653 mmHg 20%
    03:00 +19°C° 0 mm 2 mps 653 mmHg 22%
    04:00 +18°C° 0 mm 2 mps 653 mmHg 23%
    05:00 +20°C° 0 mm 2 mps 654 mmHg 21%
    06:00 +24°C° 0 mm 2 mps 655 mmHg 18%
    07:00 +26°C° 0 mm 2 mps 656 mmHg 16%
    08:00 +27°C° 0 mm 2 mps 657 mmHg 15%
    09:00 +28°C° 0 mm 3 mps 657 mmHg 15%
    10:00 +30°C° 0 mm 3 mps 657 mmHg 14%
    11:00 +32°C° 0 mm 4 mps 657 mmHg 14%
    12:00 +32°C° 0 mm 5 mps 656 mmHg 13%
    13:00 +33°C° 0 mm 5 mps 656 mmHg 13%
    14:00 +33°C° 0 mm 5 mps 656 mmHg 13%
    15:00 +33°C° 0 mm 5 mps 656 mmHg 13%
    16:00 +33°C° 0 mm 5 mps 655 mmHg 13%
    17:00 +29°C° 0 mm 4 mps 655 mmHg 17%
    18:00 +26°C° 0 mm 3 mps 655 mmHg 20%
    19:00 +23°C° 0 mm 2 mps 654 mmHg 23%
    20:00 +21°C° 0 mm 2 mps 654 mmHg 24%
    21:00 +21°C° 0 mm 1 mps 654 mmHg 25%
    22:00 +20°C° 0 mm 1 mps 654 mmHg 27%
    23:00 +20°C° 0 mm 1 mps 654 mmHg 27%
    Show more